Weather History for KAXA - March, 2012

Change the Weather History Date:

Monday, March 26, 2012

  Actual Average (WUND) Record (WUND)
Temperature  
Mean Temperature 52 °F -  
Max Temperature 57 °F - - (-1)
Min Temperature 46 °F - - (-1)
Degree Days  
Heating Degree Days 14    
Growing Degree Days 2 (Base 50)    
Moisture  
Dew Point 37 °F    
Average Humidity 59    
Maximum Humidity 76    
Minimum Humidity 47    
Precipitation  
Precipitation 0.00 in - - ()
Sea Level Pressure  
Sea Level Pressure 30.08 in    
Wind  
Wind Speed 18 mph (ESE)    
Max Wind Speed 38 mph    
Max Gust Speed 46 mph    
Visibility 10 miles    
Events Rain    
Averages and records for this station are not official NWS values.
T = Trace of Precipitation, MM = Missing Value Source: NWS Daily Summary

Daily Weather History Graph

Daily Weather History Graph

Search for Another Location

Airport or City:

Trip Planner

Search our weather history database for the weather conditions in past years. The results will help you decide how hot, cold, wet, or windy it might be!

Date:

Astronomy

Mar. 26, 2012 Rise Set
Actual Time 7:08 AM CDT 7:37 PM CDT
Civil Twilight 6:40 AM CDT 8:05 PM CDT
Nautical Twilight 6:06 AM CDT 8:39 PM CDT
Astronomical Twilight 5:32 AM CDT 9:13 PM CDT
Moon 8:51 AM CDT (3/26) 11:55 PM CDT (3/26)
Length of Visible Light 13h 25m
Length of Day
12h 28m
Waxing Crescent, 15% of the Moon is Illuminated
Mar 26
Waxing Crescent
Mar 30
First Quarter
Apr 6
Full
Apr 13
Last Quarter
Apr 21
New

Hourly Weather History & Observations

Time (CDT) Temp. Windchill Dew Point Humidity Pressure Visibility Wind Dir Wind Speed Gust Speed Precip Events Conditions
12:15 AM 53.6 °F - 39.2 °F 58% 30.12 in 10.0 mi NE 12.7 mph - N/A   Overcast
12:35 AM 53.6 °F - 39.2 °F 58% 30.13 in 10.0 mi NNE 11.5 mph - N/A   Overcast
12:55 AM 51.8 °F - 39.2 °F 62% 30.13 in 10.0 mi NE 10.4 mph - N/A   Overcast
1:15 AM 51.8 °F - 39.2 °F 62% 30.13 in 10.0 mi ENE 11.5 mph - N/A   Overcast
1:35 AM 51.8 °F - 37.4 °F 58% 30.13 in 10.0 mi ENE 15.0 mph - N/A   Overcast
1:55 AM 51.8 °F - 35.6 °F 54% 30.13 in 10.0 mi East 17.3 mph 21.9 mph N/A   Overcast
2:15 AM 51.8 °F - 35.6 °F 54% 30.14 in 10.0 mi East 17.3 mph 24.2 mph N/A   Mostly Cloudy
2:35 AM 51.8 °F - 35.6 °F 54% 30.14 in 10.0 mi East 13.8 mph - N/A   Mostly Cloudy
2:55 AM 51.8 °F - 35.6 °F 54% 30.13 in 10.0 mi East 12.7 mph - N/A   Overcast
3:15 AM 51.8 °F - 35.6 °F 54% 30.13 in 10.0 mi East 11.5 mph 19.6 mph N/A   Overcast
3:35 AM 51.8 °F - 35.6 °F 54% 30.13 in 10.0 mi East 12.7 mph 17.3 mph N/A   Overcast
3:55 AM 51.8 °F - 33.8 °F 50% 30.13 in 10.0 mi East 18.4 mph 21.9 mph N/A   Overcast
4:15 AM 50.0 °F - 33.8 °F 54% 30.12 in 10.0 mi ESE 18.4 mph 23.0 mph N/A   Scattered Clouds
4:35 AM 50.0 °F - 33.8 °F 54% 30.12 in 10.0 mi East 18.4 mph 24.2 mph N/A   Clear
4:55 AM 50.0 °F - 33.8 °F 54% 30.13 in 10.0 mi East 15.0 mph 24.2 mph N/A   Clear
5:15 AM 48.2 °F - 33.8 °F 58% 30.13 in 10.0 mi East 13.8 mph 21.9 mph N/A   Clear
5:35 AM 48.2 °F - 35.6 °F 62% 30.13 in 10.0 mi East 12.7 mph 19.6 mph N/A   Clear
5:55 AM 48.2 °F - 35.6 °F 62% 30.13 in 10.0 mi East 13.8 mph 19.6 mph N/A   Clear
6:15 AM 46.4 °F 40.1 °F 35.6 °F 66% 30.14 in 10.0 mi East 15.0 mph 18.4 mph N/A   Clear
6:35 AM 46.4 °F 40.4 °F 35.6 °F 66% 30.13 in 10.0 mi East 13.8 mph 21.9 mph N/A   Clear
6:55 AM 46.4 °F 41.5 °F 35.6 °F 66% 30.13 in 10.0 mi East 10.4 mph 18.4 mph N/A   Clear
7:15 AM 46.4 °F 40.1 °F 35.6 °F 66% 30.13 in 10.0 mi ESE 15.0 mph - N/A   Mostly Cloudy
7:35 AM 46.4 °F 39.8 °F 37.4 °F 71% 30.13 in 10.0 mi East 16.1 mph - N/A   Scattered Clouds
7:55 AM 46.4 °F 41.1 °F 39.2 °F 76% 30.14 in 10.0 mi East 11.5 mph 18.4 mph N/A   Clear
8:15 AM 48.2 °F - 41.0 °F 76% 30.14 in 10.0 mi ESE 17.3 mph - N/A   Clear
8:35 AM 48.2 °F - 41.0 °F 76% 30.14 in 10.0 mi ESE 24.2 mph 31.1 mph N/A   Mostly Cloudy
8:55 AM 48.2 °F - 41.0 °F 76% 30.14 in 10.0 mi ESE 28.8 mph 36.8 mph N/A   Overcast
9:15 AM 48.2 °F - 39.2 °F 71% 30.14 in 10.0 mi ESE 26.5 mph 38.0 mph N/A   Overcast
9:35 AM 48.2 °F - 39.2 °F 71% 30.14 in 10.0 mi ESE 26.5 mph 32.2 mph N/A   Overcast
9:55 AM 48.2 °F - 39.2 °F 71% 30.14 in 10.0 mi ESE 26.5 mph 36.8 mph N/A   Overcast
10:15 AM 48.2 °F - 39.2 °F 71% 30.14 in 10.0 mi SE 27.6 mph 35.7 mph N/A   Overcast
10:35 AM 50.0 °F - 39.2 °F 66% 30.14 in 10.0 mi SE 26.5 mph 36.8 mph N/A   Overcast
10:55 AM 51.8 °F - 39.2 °F 62% 30.13 in 10.0 mi SE 27.6 mph 38.0 mph N/A   Mostly Cloudy
11:15 AM 51.8 °F - 37.4 °F 58% 30.13 in 10.0 mi ESE 19.6 mph 33.4 mph N/A   Scattered Clouds
11:35 AM 53.6 °F - 39.2 °F 58% 30.12 in 10.0 mi ESE 26.5 mph 38.0 mph N/A   Scattered Clouds
11:55 AM 55.4 °F - 37.4 °F 51% 30.12 in 10.0 mi ESE 23.0 mph 32.2 mph N/A   Scattered Clouds
12:15 PM 55.4 °F - 37.4 °F 51% 30.11 in 10.0 mi ESE 23.0 mph 36.8 mph N/A   Mostly Cloudy
12:35 PM 55.4 °F - 37.4 °F 51% 30.11 in 10.0 mi ESE 27.6 mph 35.7 mph N/A   Scattered Clouds
12:55 PM 55.4 °F - 37.4 °F 51% 30.10 in 10.0 mi ESE 24.2 mph 31.1 mph N/A   Scattered Clouds
1:15 PM 55.4 °F - 37.4 °F 51% 30.08 in 10.0 mi SE 27.6 mph 34.5 mph N/A   Scattered Clouds
1:35 PM 57.2 °F - 37.4 °F 48% 30.08 in 10.0 mi ESE 23.0 mph 34.5 mph N/A   Clear
1:55 PM 55.4 °F - 37.4 °F 51% 30.06 in 10.0 mi ESE 20.7 mph 34.5 mph N/A   Scattered Clouds
2:15 PM 55.4 °F - 35.6 °F 47% 30.05 in 10.0 mi SE 28.8 mph 35.7 mph N/A   Mostly Cloudy
2:35 PM 55.4 °F - 37.4 °F 51% 30.04 in 10.0 mi ESE 27.6 mph 38.0 mph N/A   Overcast
2:55 PM 53.6 °F - 35.6 °F 51% 30.04 in 10.0 mi SE 26.5 mph 33.4 mph N/A   Overcast
3:15 PM 53.6 °F - 37.4 °F 54% 30.04 in 10.0 mi SE 18.4 mph 31.1 mph N/A   Light Drizzle
3:35 PM 53.6 °F - 37.4 °F 54% 30.02 in 10.0 mi SE 24.2 mph 33.4 mph N/A Rain Light Rain
3:55 PM 53.6 °F - 37.4 °F 54% 29.98 in 10.0 mi ESE 25.3 mph 39.1 mph N/A Rain Light Rain
4:15 PM 53.6 °F - 37.4 °F 54% 29.97 in 10.0 mi SE 29.9 mph 39.1 mph N/A   Clear
4:35 PM 53.6 °F - 37.4 °F 54% 29.95 in 10.0 mi SE 38.0 mph 46.0 mph N/A   Clear
4:55 PM 51.8 °F - 35.6 °F 54% 29.93 in 10.0 mi SE 28.8 mph 46.0 mph N/A   Clear
5:15 PM 51.8 °F - 35.6 °F 54% 29.94 in 10.0 mi SE 35.7 mph 43.7 mph N/A   Clear
5:35 PM 51.8 °F - 35.6 °F 54% 29.93 in 10.0 mi SE 33.4 mph 43.7 mph N/A   Clear
5:55 PM 51.8 °F - 35.6 °F 54% 29.94 in 10.0 mi SE 32.2 mph 42.6 mph N/A   Clear
6:15 PM 50.0 °F - 35.6 °F 58% 29.94 in 10.0 mi ESE 29.9 mph 43.7 mph N/A   Clear
6:35 PM 50.0 °F - 35.6 °F 58% 29.94 in 10.0 mi SE 25.3 mph 34.5 mph N/A   Clear
6:55 PM 50.0 °F - 35.6 °F 58% 29.93 in 10.0 mi SE 27.6 mph 39.1 mph N/A   Clear
7:15 PM 48.2 °F - 35.6 °F 62% 29.92 in 10.0 mi ESE 29.9 mph 39.1 mph N/A   Clear
7:35 PM 48.2 °F - 35.6 °F 62% 29.91 in 10.0 mi ESE 25.3 mph 39.1 mph N/A   Clear
7:55 PM 48.2 °F - 35.6 °F 62% 29.90 in 10.0 mi SE 29.9 mph 44.9 mph N/A   Clear
8:15 PM 48.2 °F - 35.6 °F 62% 29.90 in 10.0 mi SE 31.1 mph 40.3 mph N/A   Clear
8:35 PM 46.4 °F 37.0 °F 33.8 °F 62% 29.89 in 10.0 mi SE 31.1 mph 40.3 mph N/A   Clear
8:55 PM 46.4 °F 36.7 °F 33.8 °F 62% 29.89 in 10.0 mi SE 33.4 mph 43.7 mph N/A   Clear
9:15 PM 46.4 °F 37.0 °F 33.8 °F 62% 29.89 in 10.0 mi SE 31.1 mph 39.1 mph N/A   Clear
9:35 PM 46.4 °F 36.5 °F 33.8 °F 62% 29.88 in 10.0 mi SE 34.5 mph 43.7 mph N/A   Clear
9:55 PM 46.4 °F 36.7 °F 33.8 °F 62% 29.88 in 10.0 mi SE 33.4 mph 43.7 mph N/A   Clear
10:15 PM 46.4 °F 37.0 °F 33.8 °F 62% 29.87 in 10.0 mi SE 31.1 mph 40.3 mph N/A   Clear
10:35 PM 46.4 °F 37.7 °F 33.8 °F 62% 29.87 in 10.0 mi SE 26.5 mph 38.0 mph N/A   Clear
10:55 PM 46.4 °F 37.4 °F 33.8 °F 62% 29.86 in 10.0 mi SE 28.8 mph 40.3 mph N/A   Clear
11:15 PM 46.4 °F 36.9 °F 33.8 °F 62% 29.85 in 10.0 mi SSE 32.2 mph 40.3 mph N/A   Clear
11:35 PM 46.4 °F 37.4 °F 32.0 °F 57% 29.85 in 10.0 mi SE 28.8 mph 35.7 mph N/A   Clear
11:55 PM 46.4 °F 37.0 °F 32.0 °F 57% 29.86 in 10.0 mi SSE 31.1 mph 43.7 mph N/A   Clear